星链-4073 (STARLINK-4073 )

导读 | 豆包AI

STARLINK-4073是美国SpaceX公司星链(Starlink)互联网星座的一员,于北京时间2022年5月18日发射升空,归入低地球轨道运行。作为星链全球组网计划的组成部分,它承担着为全球偏远、基础设施匮乏区域提供高速低延迟宽带互联网服务的使命,助力实现全球无缝网络覆盖,推动星链星座规模持续拓展。

Basic Information
目录编号:
52672
目录名称:
STARLINK-4073
国际标识:
2022-053S
轨道中心:
EARTH
卫星名称:
星链-4073
卫星全名:
星链-4073 (STARLINK-4073 )
卫星状态:
在轨 (已飞行1443 天)
发射日期:
2022-05-18 UTC
国别 :
美国 (US)
星等 :
--
Orbit Information
数据来源 国际轨道数据 AOE轨道数据
星历时间 2026-04-30T22:04:46+0800
8小时前
查看轨道信息
2026-04-27T11:00:00+0800
3天前
查看轨道信息
半长轴 6917.879km 6917.889km
偏心率 0.0001229 0.000231
轨道倾角 53.217° 53.220°
近地点辐角 90.836° 89.708°
升交点赤经 281.146° 296.684°
平近点角 269.277° 177.152°
近地点 538.891km 538.153km
远地点 540.593km 541.351km
周期 95.438分钟 95.438分钟
每日圈数 15.088406 15.088372
Detailed Information
固有亮度:
5
最大亮度:
2.5
卫星平台:
Starlink v1.5
覆盖范围:
全球
运营商:
太空探索技术公司
运营商所在国:
美国
制造商(研发单位):
太空探索技术公司
制造商所在国:
美国
使用方式:
暂无
Satellite Introduction
星链(Starlink)计划是由太空探索技术公司(SpaceX)提出的一个巨型低轨卫星互联网星座项目,计划在2019年至2024年间在太空搭建由约1.2万颗卫星组成的“星链”网络,其中1584颗将部署在地球上空550千米处的近地轨道,并从2020年开始工作。该卫星仍在工作。
2D Orbit Map
3D Orbit Map
Orbit Altitude Analysis Chart
Orbit Inclination Analysis Chart
Orbit Comprehensive Analysis Chart
View Comprehensive Chart